Location: Dackenheim
(49.5215°N, 8.1854°E)
Time: 02:39:41
(UTC+00:00)

AO-91 - Pass Details

Date: 15 March 2026
Orbit: 425 x 637 km, 97.5° (Epoch: 13 April)

Event Time Altitude Azimuth Distance (km) Brightness Sun altitude
Rises 21:48:09 0° 2° (N) 2,955 ? -37.1°
Reaches altitude 10° 21:50:46 10° 347° (NNW) 2,042 ? -37.3°
Enters shadow 21:52:09 16° 333° (NNW) 1,660 ? -37.4°
